www.pogodaiklimat.ru

Погода и климат >> Архив погоды >> Россия >> Якутия >> Мача


ПОГОДА в Маче

  • Прогноз погоды в Маче
  • Монитор погоды в Маче

АРХИВ ПОГОДЫ в Маче

Время (UTC), дата Ветер
(напр.,м/с)
 
Видим.   Явления Облачность Т
(С)
Тd
(С)
f
(%)
Тe
(С)
Тes
(С)
Комфортность P
(гПа)
Po
(гПа)
Тmin
(С)
Tmax
(С)
R
(мм)
R24
(мм)
S
(см)
09 11.02 СЗ 3 н/о н/о -17.3 -20.1 79 -24 -24 1034.4 1012.0
12 11.02 З 1 50 км 3/0
[Ci fib]
-21.3 -24.6 75 -24 -24 1034.2 1011.5 -16.2
18 11.02 Ю 1 н/о н/о -19.6 -21.7 83 -23 -23 1033.7 1011.2
00 12.02 З 4 50 км позёмок 10/0
[Ac lent Ci]
-15.0 -27.1 35 -23 -23 1031.4 1009.3 -24.1 30
03 12.02 З 4 н/о н/о -14.4 -17.9 75 -22 -22 1030.9 1008.9
06 12.02 ЮЗ 4
{10}
50 км позёмок 10/0
[Ac lent Ci]
-12.6 -26.6 30 -20 -19 1029.4 1007.5
09 12.02 З 3
{10}
н/о н/о -12.7 -16.7 72 -19 -19 1028.8 1007.0
12 12.02 З 3 50 км {метель} 4/0
[Ci fib]
-14.0 -27.9 30 -20 -20 1028.4 1006.5 -11.5
18 12.02 З 2 н/о н/о -13.8 -47.5 4 -19 -19 1026.6 1004.7
21 12.02 З 3 н/о н/о -13.3 -17.1 73 -20 -20 1025.0 1003.2
00 13.02 З 3 50 км 10/0
[Ac lent Ci]
-13.6 -29.5 25 -20 -20 1024.2 1002.4 -18.2 30
03 13.02 СЗ 3 н/о н/о -13.7 -47.4 4 -20 -20 1022.9 1001.1
06 13.02 З 3
{10}
50 км позёмок 10/0
[Ac lent Ci]
-11.1 -27.3 25 -17 -16 1021.8 1000.2
09 13.02 ЮЗ 3 н/о н/о -11.6 -25.9 29 -18 -18 1021.7 1000.1
12 13.02 З 2 50 км {метель} 9/0
[Ac trans]
-12.0 -28.1 25 -17 -17 1021.8 1000.3 -10.4
18 13.02 СЗ 2 н/о н/о -12.5 -16.5 72 -17 -17 1022.2 1000.5
21 13.02 СЗ 3 н/о н/о -13.7 -47.5 4 -20 -20 1022.6 1000.8
00 14.02 СЗ 2 4000 м слаб. снег 10/0
[Ac As]
-14.7 -17.4 80 -20 -20 1023.1 1001.2 -14.8 0.7 30
06 14.02 СЗ 2 50 км {снег, метель} 10/3 600 м
[Cb cap Ac cuf Ci ing]
-11.9 -19.1 55 -16 -16 1023.1 1001.5
09 14.02 СЗ 2
{10}
н/о н/о -12.8 -46.7 4 -17 -17 1024.1 1002.4
12 14.02 штиль 0 50 км 9/0
[Ac lent]
-13.8 -18.1 70 -14 -14 1024.0 1002.2 -11.4 0.2
18 14.02 З 2 н/о н/о -9.7 -14.5 68 -14 -14 1022.6 1001.1
00 15.02 З 3 50 км {метель} 10/0
[Ac und]
-10.2 -18.7 50 -16 -16 1021.3 999.8 -14.2 30
03 15.02 З 5-10
{12}
н/о н/о -9.0 -14.0 67 -17 -17 1020.1 998.8
06 15.02 З 5
{13}
50 км 10/0
[Ac und]
-8.7 -17.9 47 -16 -16 1018.7 997.4
09 15.02 З 4
{11}
н/о н/о -8.2 -13.4 66 -15 -15 1017.1 995.9
12 15.02 З 3 50 км позёмок 10/3 600 м
[Cb cap Ac cuf Ci ing]
-7.6 -15.4 54 -13 -13 1014.4 993.3 -7.4
18 15.02 З 5
{11}
н/о н/о -5.0 -11.1 62 -12 -12 1010.7 989.8
00 16.02 СЗ 9 20 км сильный позёмок 9/5 600 м
[Cb cap Ac cuf]
-5.6 -12.7 57 -15 -15 1010.6 989.7 -7.8 27
03 16.02 З 9-16
{16}
н/о н/о -4.7 -40.9 4 -12 -12 1011.2 990.3
06 16.02 З 7
{17}
50 км позёмок 9/4 600 м
[Cb cap Ac cuf]
-4.1 -13.0 50 -12 -12 1011.1 990.3
09 16.02 З 7-11
{15}
н/о н/о -4.5 -40.8 4 -11 -11 1011.8 990.9
12 16.02 З 4 50 км {метель} 10/3 600 м
[Cb cap Ac cuf Ci ing]
-4.9 -11.7 59 -11 -11 1011.3 990.5 -3.8
18 16.02 СЗ 5
{10}
н/о н/о -6.4 -12.2 63 -13 -13 1013.5 992.5
21 16.02 З 2 н/о н/о -7.7 -13.1 65 -12 -12 1014.5 993.4
00 17.02 штиль 0 2000 м ливневой снег 10/10 600 м
[Cb cap]
-8.2 -8.8 95 -9 -9 1014.0 992.8 -8.4 2 33
06 17.02 СЗ 4 4000 м слаб. ливневой снег {метель} 9/4 600 м
[Cb cap Ac cuf]
-6.7 -8.7 86 -13 -13 1010.2 989.3
12 17.02 ЮВ 2 20 км {снег, метель} 10/0
[Ac As]
-6.1 -6.5 97 -11 -11 1005.2 984.4 -5.7 0.7
18 17.02 З 2 н/о н/о -4.8 -5.1 98 -8 -8 1005.0 984.3
00 18.02 СЗ 2 2000 м ливневой снег 10/10 600 м
[Cb cap]
-6.6 -8.6 86 -11 -11 1007.5 986.7 -7.7 0.2 32
03 18.02 СЗ 6-10
{11}
н/о н/о -6.4 -12.1 64 -14 -14 1011.2 990.3
06 18.02 СЗ 4 50 км {ливн. осадки, метель} 9/4 1000 м
[Sc Ac cuf]
-7.1 -14.6 55 -13 -13 1012.2 991.2

 

Местоположение метеостанции Мача (Якутия, Россия): широта 59.93 долгота 117.60 высота над уровнем моря 164 м.

В архиве по умолчанию представлена погода в Маче за последнюю неделю. Архивные данные за месяц целиком и за предыдущие месяцы, начиная с января 2011 года, Вы можете получить, выбрав интересующий диапазон дат из раскрывающегося списка и нажав кнопку "Ввод!".


*Определитесь, кто Вы:
робот инопланетянин человек

Внимание! Время в таблицах - всемирное. Для получения местного времени необходимо прибавить поправку, которая равна 9 ч.

Смотрите также архив погоды в соседних городах и на ближайших метеорологических станциях:

Погода в Перевозе (Иркутская область, Россия) (111 км)
Погода в Килиере (Якутия, Россия) (147 км)
Погода в Тяне (Якутия, Россия) (162 км)
Погода в Олекминске (Якутия, Россия) (164 км)
Погода в Ленске (Якутия, Россия) (177 км)
Погода в Дорожном (Якутия, Россия) (249 км)
Погода в Сунтаре (Якутия, Россия) (249 км)
Погода в Джикимде (Якутия, Россия) (253 км)
Погода в Крестяхе (Якутия, Россия) (272 км)
Погода в Витиме (Якутия, Россия) (291 км)

Пояснения к столбцам:

Ветер - указаны скорость ветра в м/с - средняя за 10 мин, порывы в срок и между сроками (в фигурных скобках) и направление, откуда дует ветер: С - северный, СВ - северо-восточный, В - восточный, ЮВ - юго-восточный, Ю - южный, ЮЗ - юго-западный, З - западный, СЗ - северо-западный.
Видимость - горизонтальная дальность видимости в метрах или километрах. При видимости от 1 до 10 км при отсутствии осадков обычно наблюдается дымка, при ухудшении видимости до 1 км и менее - туман. В сухую погоду видимость может ухудшаться дымом, пылью или мглою.
Явления - указаны атмосферные явления, наблюдавшиеся в срок или в последний час перед сроком; фигурными скобками обозначены явления, наблюдавшиеся между сроками (за 1-3 часа до срока); квадратными скобками обозначены град или гололедные отложения с указанием их диаметра в мм.
Облачность - указаны через наклонную черту общая и нижняя облачность в баллах и высота нижней границы облаков в метрах; квадратными скобками обозначены формы облаков: Ci - перистые, Cs - перисто-слоистые, Cc - перисто-кучевые, Ac - высококучевые, As - высокослоистые, Sc - слоисто-кучевые, Ns - слоисто-дождевые, Cu - кучевые, Cb - кучево-дождевые. Подробнее классификацию облаков см. в Атласе облаков (PDF).
T - Температура воздуха - температура, измеренная на высоте 2 м над землей.
Td - Температура точки росы - температура, при понижении до которой содержащийся в воздухе водяной пар достигнет насыщения.
f - Относительная влажность воздуха - влажноcть воздуха, измеренная на высоте 2 м над землей.
Te - Эффективная температура - температура, которую ощущает одетый по сезону человек в тени. Характеристика душности погоды. При расчете учитывается влияние влажности воздуха и скорости ветра на теплоощущения человека.
Tes - Эффективная температура на солнце - температура, которую ощущает человек, с поправкой на солнечный нагрев. Характеристика знойности погоды. Зависит от высоты солнца над горизонтом, облачности и скорости ветра. Ночью, в пасмурную погоду, а также при ветре 12 м/с и более поправка равна нулю.
P - Атмосферное давление - приведенное к уровню моря атмосферное давление.
Po - Атмосферное давление - измеренное на уровне метеостанции атмосферное давление.
Tmin - Минимальная температура - минимум температуры воздуха на высоте 2 м над землей.
Tmax - Максимальная температура - максимум температуры воздуха на высоте 2 м над землей.
R - Количество осадков - Количество выпавших осадков за период времени, мм. При наведении курсора мыши на число - период времени, за который выпало указанное количество осадков.
R24 - Количество осадков - Количество выпавших осадков за 24 часа, мм.
S - Снежный покров - Высота снежного покрова, см. При наведении курсора мыши на число - состояние снежного покрова и степень покрытия местности в баллах.